Weather History for Marfa, TX

Change the Weather History Date:

Wednesday, September 7, 2011

  Actual Average Record
Temperature  
Mean Temperature 66 °F -  
Max Temperature 87 °F 81 °F 96 °F (2000)
Min Temperature 44 °F 54 °F 41 °F (2010)
Growing Degree Days 16 (Base 50)    
Moisture  
Dew Point 21 °F    
Average Humidity 21    
Maximum Humidity 37    
Minimum Humidity 10    
Precipitation  
Precipitation 0.00 in - - ()
Sea Level Pressure  
Sea Level Pressure 30.24 in    
Wind  
Wind Speed 6 mph (ENE)    
Max Wind Speed 15 mph    
Max Gust Speed 22 mph    
Visibility 10 miles    
Events      
Averages and records for this station are not official NWS values.
T = Trace of Precipitation, MM = Missing Value Source: NWS Daily Summary

Daily Weather History Graph

Daily Weather History Graph

Search for Another Location

Airport:

Trip Planner

Search our weather history database for the weather conditions in past years. The results will help you decide how hot, cold, wet, or windy it might be!

Date:

Astronomy

Sep. 07, 2011 Rise Set
Actual Time 7:35 AM CDT 8:11 PM CDT
Civil Twilight 7:11 AM CDT 8:35 PM CDT
Nautical Twilight 6:43 AM CDT 9:04 PM CDT
Astronomical Twilight 6:14 AM CDT 9:33 PM CDT
Moon 5:16 PM CDT (9/7) 3:11 AM CDT (9/7)
Length of Visible Light 13h 24m
Length of Day
12h 35m
Waxing Gibbous, 80% of the Moon is Illuminated
Sep 7
Waxing Gibbous
Sep 12
Full
Sep 20
Last Quarter
Sep 27
New
Oct 3
First Quarter

Hourly Weather History & Observations

Time (CDT) Temp. Windchill Dew Point Humidity Pressure Visibility Wind Dir Wind Speed Gust Speed Precip Events Conditions
12:15 AM 53.6 °F - 17.6 °F 24% 30.22 in 10.0 mi NW 5.8 mph - N/A   Clear
12:35 AM 55.4 °F - 19.4 °F 25% 30.23 in 10.0 mi NNW 8.1 mph - N/A   Clear
12:55 AM 53.6 °F - 19.4 °F 26% 30.23 in 10.0 mi NNW 8.1 mph - N/A   Clear
1:15 AM 51.8 °F - 19.4 °F 28% 30.23 in 10.0 mi NNW 4.6 mph - N/A   Clear
1:35 AM 51.8 °F - 19.4 °F 28% 30.23 in 10.0 mi Calm Calm - N/A   Clear
1:55 AM 51.8 °F - 17.6 °F 26% 30.23 in 10.0 mi NNW 3.5 mph - N/A   Clear
2:15 AM 48.2 °F - 17.6 °F 30% 30.22 in 10.0 mi North 6.9 mph - N/A   Clear
2:35 AM 48.2 °F - 17.6 °F 30% 30.22 in 10.0 mi NE 3.5 mph - N/A   Clear
2:55 AM 48.2 °F - 19.4 °F 32% 30.22 in 10.0 mi Calm Calm - N/A   Clear
3:15 AM 48.2 °F - 17.6 °F 30% 30.22 in 10.0 mi NNW 5.8 mph - N/A   Clear
3:35 AM 48.2 °F - 19.4 °F 32% 30.22 in 10.0 mi NNW 5.8 mph - N/A   Clear
3:55 AM 48.2 °F - 19.4 °F 32% 30.22 in 10.0 mi NNW 5.8 mph - N/A   Clear
4:15 AM 46.4 °F 42.9 °F 19.4 °F 34% 30.22 in 10.0 mi North 6.9 mph - N/A   Clear
4:35 AM 46.4 °F 42.9 °F 19.4 °F 34% 30.22 in 10.0 mi NNW 6.9 mph - N/A   Clear
4:55 AM 44.6 °F 43.1 °F 17.6 °F 34% 30.22 in 10.0 mi NNW 3.5 mph - N/A   Clear
5:15 AM 44.6 °F 43.1 °F 17.6 °F 34% 30.21 in 10.0 mi NNW 3.5 mph - N/A   Clear
5:35 AM 44.6 °F 39.7 °F 17.6 °F 34% 30.22 in 10.0 mi NNW 9.2 mph - N/A   Clear
5:55 AM 46.4 °F 43.5 °F 19.4 °F 34% 30.22 in 10.0 mi North 5.8 mph - N/A   Clear
6:15 AM 44.6 °F 41.4 °F 17.6 °F 34% 30.22 in 10.0 mi NE 5.8 mph - N/A   Clear
6:35 AM 44.6 °F 40.7 °F 19.4 °F 37% 30.23 in 10.0 mi NNW 6.9 mph - N/A   Clear
6:55 AM 46.4 °F 41.5 °F 19.4 °F 34% 30.24 in 10.0 mi North 10.4 mph - N/A   Clear
7:15 AM 44.6 °F 41.4 °F 19.4 °F 37% 30.25 in 10.0 mi North 5.8 mph - N/A   Clear
7:35 AM 44.6 °F 40.7 °F 19.4 °F 37% 30.25 in 10.0 mi North 6.9 mph - N/A   Clear
7:55 AM 46.4 °F 43.5 °F 19.4 °F 34% 30.25 in 10.0 mi NNE 5.8 mph - N/A   Clear
8:15 AM 46.4 °F 45.2 °F 21.2 °F 37% 30.26 in 10.0 mi NNW 3.5 mph - N/A   Clear
8:35 AM 51.8 °F - 23.0 °F 33% 30.27 in 10.0 mi Calm Calm - N/A   Clear
8:55 AM 57.2 °F - 24.8 °F 29% 30.27 in 10.0 mi Calm Calm - N/A   Clear
9:15 AM 62.6 °F - 24.8 °F 24% 30.28 in 10.0 mi NNW 3.5 mph - N/A   Clear
9:35 AM 66.2 °F - 24.8 °F 21% 30.27 in 10.0 mi Calm Calm - N/A   Clear
10:15 AM 71.6 °F - 24.8 °F 17% 30.28 in 10.0 mi East 4.6 mph - N/A   Clear
10:35 AM 71.6 °F - 24.8 °F 17% 30.28 in 10.0 mi SSE 5.8 mph - N/A   Clear
10:55 AM 73.4 °F - 24.8 °F 16% 30.29 in 10.0 mi South 3.5 mph - N/A   Clear
11:15 AM 75.2 °F - 26.6 °F 17% 30.29 in 10.0 mi SSE 5.8 mph - N/A   Clear
11:35 AM 75.2 °F - 24.8 °F 15% 30.29 in 10.0 mi ESE 4.6 mph - N/A   Clear
11:55 AM 77.0 °F - 23.0 °F 13% 30.28 in 10.0 mi South 5.8 mph - N/A   Clear
12:15 PM 78.8 °F - 23.0 °F 13% 30.28 in 10.0 mi East 4.6 mph - N/A   Clear
12:35 PM 78.8 °F - 21.2 °F 12% 30.27 in 10.0 mi ESE 10.4 mph - N/A   Clear
12:55 PM 80.6 °F - 21.2 °F 11% 30.26 in 10.0 mi South 3.5 mph - N/A   Clear
1:15 PM 82.4 °F - 21.2 °F 10% 30.26 in 10.0 mi South 6.9 mph 17.3 mph N/A   Clear
1:35 PM 82.4 °F - 21.2 °F 10% 30.26 in 10.0 mi East 9.2 mph - N/A   Clear
1:55 PM 84.2 °F - 23.0 °F 11% 30.25 in 10.0 mi NE 10.4 mph 20.7 mph N/A   Clear
2:15 PM 84.2 °F - 23.0 °F 11% 30.25 in 10.0 mi East 12.7 mph 17.3 mph N/A   Clear
2:35 PM 84.2 °F - 23.0 °F 11% 30.24 in 10.0 mi East 15.0 mph 21.9 mph N/A   Clear
2:55 PM 86.0 °F - 24.8 °F 11% 30.24 in 10.0 mi ESE 10.4 mph 19.6 mph N/A   Clear
3:15 PM 86.0 °F - 24.8 °F 11% 30.23 in 10.0 mi East 5.8 mph - N/A   Clear
3:35 PM 86.0 °F - 24.8 °F 11% 30.23 in 10.0 mi East 13.8 mph 20.7 mph N/A   Clear
3:55 PM 86.0 °F - 24.8 °F 11% 30.22 in 10.0 mi ENE 8.1 mph 16.1 mph N/A   Clear
4:15 PM 87.8 °F - 24.8 °F 10% 30.22 in 10.0 mi ESE 11.5 mph 17.3 mph N/A   Clear
4:35 PM 86.0 °F - 24.8 °F 11% 30.21 in 10.0 mi East 11.5 mph 16.1 mph N/A   Clear
5:15 PM 86.0 °F - 24.8 °F 11% 30.21 in 10.0 mi NNE 3.5 mph - N/A   Clear
5:35 PM 87.8 °F - 24.8 °F 10% 30.21 in 10.0 mi ENE 9.2 mph - N/A   Clear
5:55 PM 86.0 °F - 24.8 °F 11% 30.21 in 10.0 mi East 9.2 mph 17.3 mph N/A   Clear
6:15 PM 86.0 °F - 24.8 °F 11% 30.21 in 10.0 mi East 11.5 mph 16.1 mph N/A   Clear
6:35 PM 84.2 °F - 23.0 °F 11% 30.21 in 10.0 mi ESE 11.5 mph 16.1 mph N/A   Clear
6:55 PM 84.2 °F - 23.0 °F 11% 30.21 in 9.0 mi East 12.7 mph 16.1 mph N/A   Clear
7:15 PM 82.4 °F - 21.2 °F 10% 30.21 in 10.0 mi ESE 12.7 mph - N/A   Clear
7:35 PM 80.6 °F - 21.2 °F 11% 30.22 in 10.0 mi ESE 15.0 mph 18.4 mph N/A   Clear
7:55 PM 78.8 °F - 19.4 °F 11% 30.22 in 10.0 mi ESE 11.5 mph - N/A   Clear
8:15 PM 75.2 °F - 17.6 °F 11% 30.23 in 10.0 mi ESE 12.7 mph - N/A   Clear
8:35 PM 73.4 °F - 15.8 °F 11% 30.24 in 10.0 mi East 8.1 mph - N/A   Clear
8:55 PM 69.8 °F - 12.2 °F 11% 30.25 in 10.0 mi East 9.2 mph - N/A   Clear
9:15 PM 66.2 °F - 12.2 °F 12% 30.25 in 10.0 mi East 9.2 mph - N/A   Clear
9:35 PM 66.2 °F - 12.2 °F 12% 30.27 in 10.0 mi East 5.8 mph - N/A   Clear
9:55 PM 66.2 °F - 12.2 °F 12% 30.28 in 10.0 mi Calm Calm - N/A   Clear
10:15 PM 68.0 °F - 12.2 °F 12% 30.29 in 10.0 mi East 12.7 mph - N/A   Clear
10:35 PM 64.4 °F - 12.2 °F 13% 30.30 in 10.0 mi NE 10.4 mph - N/A   Clear
10:55 PM 64.4 °F - 14.0 °F 14% 30.30 in 10.0 mi East 9.2 mph - N/A   Clear
11:15 PM 62.6 °F - 15.8 °F 16% 30.32 in 10.0 mi NNE 9.2 mph - N/A   Clear
11:35 PM 66.2 °F - 17.6 °F 15% 30.32 in 10.0 mi North 9.2 mph - N/A   Clear
11:55 PM 68.0 °F - 17.6 °F 15% 30.32 in 10.0 mi NE 9.2 mph - N/A   Clear